Jacob Michael Eckstein — WDH7166 — position and weather

sailwx.info

Track history (hours):
 
Tides and Currents Weather Stations Pressure Air Temp Water Temp Dewpoint Dewpoint Depression Visibility Wind Speed Wind Dir Waves Ship Positions

Jacob Michael Eckstein

Owner: Marquette Transportation Co. LLC, Paducah, KY. More information available from US FCC via Universal Licensing System and Coast Guard Vessel Documentation Center.

Last reported at 2018-Feb-16 00:37 UTC. Time now 2018-Feb-17 20:05 UTC.
Position N 39°12' W 090°36'.

Type: Towing. MMSI: 366986640.

Date/timePositionNaut miles runAvg speedWind from/ knotsBaromVisibWave heightAir tempDewpointWater temp
2018-Feb-16 00:37N 39°12' W 090°36'1 4.3
2018-Feb-16 00:30N 39°12' W 090°36'2 4.7
2018-Feb-15 23:59N 39°10' W 090°37'2 4.9
2018-Feb-15 23:30N 39°07' W 090°36'3 5.4
2018-Feb-15 23:00N 39°05' W 090°35'3 4.5
2018-Feb-15 22:21N 39°02' W 090°34'2 5.5
2018-Feb-15 22:00N 38°60' W 090°34'3 5.6
2018-Feb-15 21:30N 38°58' W 090°32'2 4.8
2018-Feb-15 21:00N 38°58' W 090°29'3 5.5
2018-Feb-15 20:30N 38°58' W 090°26'3 6.1
2018-Feb-15 20:00N 38°57' W 090°22'3 6.2
2018-Feb-15 19:30N 38°55' W 090°19'3 6.3
2018-Feb-15 19:00N 38°55' W 090°14'3 5.7
2018-Feb-15 18:30N 38°53' W 090°12'2 3.7
2018-Feb-15 18:00N 38°52' W 090°10'1 1.1
2018-Feb-15 17:30N 38°52' W 090°09'0 0.2
2018-Feb-15 16:57N 38°52' W 090°09'0 0.0
2018-Feb-15 16:30N 38°52' W 090°09'0 0.2
2018-Feb-15 16:00N 38°52' W 090°09'0 0.3
2018-Feb-15 15:30N 38°52' W 090°09'0 0.7
2018-Feb-15 15:00N 38°52' W 090°09'0 0.4
2018-Feb-15 14:29N 38°52' W 090°09'0 0.0
2018-Feb-15 14:00N 38°52' W 090°09'0 0.0
2018-Feb-15 13:30N 38°52' W 090°09'0 0.1
2018-Feb-15 13:00N 38°52' W 090°09'0 0.0
2018-Feb-15 12:30N 38°52' W 090°09'0 0.5
2018-Feb-15 12:00N 38°52' W 090°09'0 0.7
2018-Feb-15 11:30N 38°52' W 090°09'0 0.0
2018-Feb-15 11:00N 38°52' W 090°09'0 0.0
2018-Feb-15 10:30N 38°52' W 090°09'0 0.0
2018-Feb-15 09:59N 38°52' W 090°09'0 0.0
2018-Feb-15 09:30N 38°52' W 090°09'0 0.0
2018-Feb-15 09:00N 38°52' W 090°09'0 0.0
2018-Feb-15 08:30N 38°52' W 090°09'0 0.0
2018-Feb-15 08:00N 38°52' W 090°09'0 0.0
2018-Feb-15 07:30N 38°52' W 090°09'0 0.0
2018-Feb-15 07:00N 38°52' W 090°09'0 0.6
2018-Feb-15 06:30N 38°52' W 090°08'1 1.6
2018-Feb-15 06:00N 38°51' W 090°08'0 0.0
2018-Feb-15 05:29N 38°51' W 090°08'0 0.0
2018-Feb-15 04:54N 38°51' W 090°08'0 0.0
2018-Feb-15 04:26N 38°51' W 090°08'0 1.1
2018-Feb-15 04:00N 38°51' W 090°07'3 5.2
2018-Feb-15 03:30N 38°49' W 090°07'7 1.7
2018-Feb-14 23:45N 38°43' W 090°10'0 1.1
2018-Feb-14 23:18N 38°42' W 090°11'0 0.8
2018-Feb-14 22:46N 38°42' W 090°11'0 1.8
2018-Feb-14 22:30N 38°42' W 090°11'2 3.4
2018-Feb-14 22:00N 38°40' W 090°11'1 1.5
2018-Feb-14 21:30N 38°39' W 090°11'0 0.0
2018-Feb-14 21:00N 38°39' W 090°11'0 0.0
2018-Feb-14 20:30N 38°39' W 090°11'0 0.3
2018-Feb-14 20:00N 38°39' W 090°11'2 4.6
2018-Feb-14 19:30N 38°37' W 090°11'6 0.3
2018-Feb-14 03:38N 38°32' W 090°15'5 7.0
2018-Feb-14 02:51N 38°37' W 090°11'3 7.0
2018-Feb-14 02:27N 38°39' W 090°11'2 4.9
2018-Feb-14 02:00N 38°42' W 090°11'1 1.3
2018-Feb-14 01:30N 38°42' W 090°11'1 2.0
2018-Feb-14 01:00N 38°43' W 090°10'1 2.5
2018-Feb-14 00:30N 38°44' W 090°09'0 0.6
2018-Feb-14 00:00N 38°44' W 090°09'1 1.5
2018-Feb-13 23:24N 38°45' W 090°09'2 3.6
2018-Feb-13 22:45N 38°47' W 090°07'1 5.8
2018-Feb-13 22:30N 38°49' W 090°07'3 5.5
2018-Feb-13 22:00N 38°51' W 090°07'1 2.7
2018-Feb-13 21:28N 38°52' W 090°09'0 0.1
2018-Feb-13 21:00N 38°52' W 090°09'0 0.2
2018-Feb-13 20:23N 38°52' W 090°09'0 0.0
2018-Feb-13 20:00N 38°52' W 090°09'0 0.2
2018-Feb-13 19:30N 38°52' W 090°09'0 0.0
2018-Feb-13 19:00N 38°52' W 090°09'0 0.1
2018-Feb-13 18:27N 38°52' W 090°09'1 1.9
2018-Feb-13 18:00N 38°53' W 090°10'3 5.7
2018-Feb-13 17:30N 38°54' W 090°13'1 2.9
2018-Feb-13 17:00N 38°55' W 090°15'0 0.0
2018-Feb-13 16:30N 38°55' W 090°15'0 0.0
2018-Feb-13 16:00N 38°55' W 090°15'0 0.0
2018-Feb-13 15:30N 38°55' W 090°15'0 0.0
2018-Feb-13 15:00N 38°55' W 090°15'0 0.0
2018-Feb-13 14:30N 38°55' W 090°15'0 0.0
2018-Feb-13 14:00N 38°55' W 090°15'0 0.0
2018-Feb-13 13:30N 38°55' W 090°15'0 0.0
2018-Feb-13 13:00N 38°55' W 090°15'0 0.0
2018-Feb-13 12:30N 38°55' W 090°15'0 0.0
2018-Feb-13 12:00N 38°55' W 090°15'0 0.0
2018-Feb-13 11:30N 38°55' W 090°15'0 0.0
2018-Feb-13 11:00N 38°55' W 090°15'0 0.0
2018-Feb-13 10:30N 38°55' W 090°15'0 0.0
2018-Feb-13 10:00N 38°55' W 090°15'0 0.0
2018-Feb-13 09:30N 38°55' W 090°15'0 0.0
2018-Feb-13 09:00N 38°55' W 090°15'0 0.0
2018-Feb-13 08:30N 38°55' W 090°15'0 0.2
2018-Feb-13 08:00N 38°55' W 090°15'2 4.1
2018-Feb-13 07:30N 38°55' W 090°17'3 5.7
2018-Feb-13 07:00N 38°56' W 090°21'3 6.2
2018-Feb-13 06:30N 38°58' W 090°24'3 6.0
2018-Feb-13 06:00N 38°58' W 090°28'2 4.9
2018-Feb-13 05:30N 38°57' W 090°31'3 5.1
2018-Feb-13 05:00N 38°59' W 090°33'3 5.3
2018-Feb-13 04:30N 39°01' W 090°34'2 4.2
2018-Feb-13 04:00N 39°03' W 090°35'2 3.6
2018-Feb-13 03:30N 39°05' W 090°36'3 5.1
2018-Feb-13 03:00N 39°08' W 090°36'2 4.4
2018-Feb-13 02:29N 39°10' W 090°37'2 4.6
2018-Feb-13 02:00N 39°12' W 090°36'  
2018-Feb-07 05:50N 38°52' W 090°09'1 1.8
2018-Feb-07 05:30N 38°52' W 090°08'0 0.6
2018-Feb-07 05:00N 38°52' W 090°08'0 0.1
2018-Feb-07 04:30N 38°52' W 090°08'0 0.0
2018-Feb-07 04:00N 38°52' W 090°08'0 0.0
2018-Feb-07 03:30N 38°52' W 090°08'0 0.0
2018-Feb-07 03:00N 38°52' W 090°08'0 0.1
2018-Feb-07 02:30N 38°52' W 090°08'0 0.0
2018-Feb-07 02:00N 38°52' W 090°08'0 0.0
2018-Feb-07 01:30N 38°52' W 090°08'0 0.0
2018-Feb-07 01:00N 38°52' W 090°08'0 0.0
2018-Feb-07 00:30N 38°52' W 090°08'0 0.0
2018-Feb-07 00:00N 38°52' W 090°08'0 0.0
2018-Feb-06 23:29N 38°52' W 090°08'1 1.5
2018-Feb-06 23:00N 38°51' W 090°08'2 4.4
2018-Feb-06 22:30N 38°49' W 090°07'0 0.4
2018-Feb-06 22:00N 38°49' W 090°07'0 0.0
2018-Feb-06 21:29N 38°49' W 090°07'0 0.1
2018-Feb-06 21:00N 38°49' W 090°07'0 0.4
2018-Feb-06 20:30N 38°49' W 090°07'0 0.0
2018-Feb-06 19:59N 38°49' W 090°07'0 0.0
2018-Feb-06 19:30N 38°49' W 090°07'0 0.0
2018-Feb-06 19:00N 38°49' W 090°07'0 0.0
2018-Feb-06 18:25N 38°49' W 090°07'0 0.0
2018-Feb-06 18:00N 38°49' W 090°07'0 0.0
2018-Feb-06 17:27N 38°49' W 090°07'0 0.0
2018-Feb-06 16:59N 38°49' W 090°07'0 0.0
2018-Feb-06 16:30N 38°49' W 090°07'0 0.4
2018-Feb-06 16:00N 38°49' W 090°07'2 3.8
2018-Feb-06 15:30N 38°51' W 090°07'2 2.4
2018-Feb-06 14:52N 38°52' W 090°09'0 0.0
2018-Feb-06 14:24N 38°52' W 090°09'0 0.1
2018-Feb-06 14:00N 38°52' W 090°09'0 0.3
2018-Feb-06 13:00N 38°52' W 090°09'0 0.0
2018-Feb-06 12:30N 38°52' W 090°09'0 0.2
2018-Feb-06 12:00N 38°52' W 090°09'0 0.1
2018-Feb-06 11:00N 38°52' W 090°09'0 0.0
2018-Feb-06 10:30N 38°52' W 090°09'0 0.1
2018-Feb-06 10:00N 38°52' W 090°09'2 4.1
2018-Feb-06 09:30N 38°53' W 090°12'2 2.0
2018-Feb-06 08:30N 38°55' W 090°13'0 0.0
2018-Feb-06 08:00N 38°55' W 090°13'0 0.0
2018-Feb-06 07:30N 38°55' W 090°13'0 0.0
2018-Feb-06 06:30N 38°55' W 090°13'0 0.0
2018-Feb-06 06:00N 38°55' W 090°13'0 0.0
2018-Feb-06 05:30N 38°55' W 090°13'0 0.0
2018-Feb-06 05:00N 38°55' W 090°13'0 0.0
2018-Feb-06 04:30N 38°55' W 090°13'5 3.4
2018-Feb-06 03:00N 38°56' W 090°20'3 6.0
2018-Feb-06 02:30N 38°57' W 090°23'6 5.6
2018-Feb-06 01:30N 38°58' W 090°30'2 4.4
2018-Feb-06 01:00N 38°58' W 090°33'  
Track history (hours):
 
Tides and Currents Weather Stations Pressure Air Temp Water Temp Dewpoint Dewpoint Depression Visibility Wind Speed Wind Dir Waves Ship Positions

Jacob Michael Eckstein

Owner: Marquette Transportation Co. LLC, Paducah, KY. More information available from US FCC via Universal Licensing System and Coast Guard Vessel Documentation Center.

Last reported at 2018-Feb-16 00:37 UTC. Time now 2018-Feb-17 20:05 UTC.
Position N 39°12' W 090°36'.

Type: Towing. MMSI: 366986640.

Date/timePositionNaut miles runAvg speedWind from/ knotsBaromVisibWave heightAir tempDewpointWater temp
2018-Feb-16 00:37N 39°12' W 090°36'1 4.3
2018-Feb-16 00:30N 39°12' W 090°36'2 4.7
2018-Feb-15 23:59N 39°10' W 090°37'2 4.9
2018-Feb-15 23:30N 39°07' W 090°36'3 5.4
2018-Feb-15 23:00N 39°05' W 090°35'3 4.5
2018-Feb-15 22:21N 39°02' W 090°34'2 5.5
2018-Feb-15 22:00N 38°60' W 090°34'3 5.6
2018-Feb-15 21:30N 38°58' W 090°32'2 4.8
2018-Feb-15 21:00N 38°58' W 090°29'3 5.5
2018-Feb-15 20:30N 38°58' W 090°26'3 6.1
2018-Feb-15 20:00N 38°57' W 090°22'3 6.2
2018-Feb-15 19:30N 38°55' W 090°19'3 6.3
2018-Feb-15 19:00N 38°55' W 090°14'3 5.7
2018-Feb-15 18:30N 38°53' W 090°12'2 3.7
2018-Feb-15 18:00N 38°52' W 090°10'1 1.1
2018-Feb-15 17:30N 38°52' W 090°09'0 0.2
2018-Feb-15 16:57N 38°52' W 090°09'0 0.0
2018-Feb-15 16:30N 38°52' W 090°09'0 0.2
2018-Feb-15 16:00N 38°52' W 090°09'0 0.3
2018-Feb-15 15:30N 38°52' W 090°09'0 0.7
2018-Feb-15 15:00N 38°52' W 090°09'0 0.4
2018-Feb-15 14:29N 38°52' W 090°09'0 0.0
2018-Feb-15 14:00N 38°52' W 090°09'0 0.0
2018-Feb-15 13:30N 38°52' W 090°09'0 0.1
2018-Feb-15 13:00N 38°52' W 090°09'0 0.0
2018-Feb-15 12:30N 38°52' W 090°09'0 0.5
2018-Feb-15 12:00N 38°52' W 090°09'0 0.7
2018-Feb-15 11:30N 38°52' W 090°09'0 0.0
2018-Feb-15 11:00N 38°52' W 090°09'0 0.0
2018-Feb-15 10:30N 38°52' W 090°09'0 0.0
2018-Feb-15 09:59N 38°52' W 090°09'0 0.0
2018-Feb-15 09:30N 38°52' W 090°09'0 0.0
2018-Feb-15 09:00N 38°52' W 090°09'0 0.0
2018-Feb-15 08:30N 38°52' W 090°09'0 0.0
2018-Feb-15 08:00N 38°52' W 090°09'0 0.0
2018-Feb-15 07:30N 38°52' W 090°09'0 0.0
2018-Feb-15 07:00N 38°52' W 090°09'0 0.6
2018-Feb-15 06:30N 38°52' W 090°08'1 1.6
2018-Feb-15 06:00N 38°51' W 090°08'0 0.0
2018-Feb-15 05:29N 38°51' W 090°08'0 0.0
2018-Feb-15 04:54N 38°51' W 090°08'0 0.0
2018-Feb-15 04:26N 38°51' W 090°08'0 1.1
2018-Feb-15 04:00N 38°51' W 090°07'3 5.2
2018-Feb-15 03:30N 38°49' W 090°07'7 1.7
2018-Feb-14 23:45N 38°43' W 090°10'0 1.1
2018-Feb-14 23:18N 38°42' W 090°11'0 0.8
2018-Feb-14 22:46N 38°42' W 090°11'0 1.8
2018-Feb-14 22:30N 38°42' W 090°11'2 3.4
2018-Feb-14 22:00N 38°40' W 090°11'1 1.5
2018-Feb-14 21:30N 38°39' W 090°11'0 0.0
2018-Feb-14 21:00N 38°39' W 090°11'0 0.0
2018-Feb-14 20:30N 38°39' W 090°11'0 0.3
2018-Feb-14 20:00N 38°39' W 090°11'2 4.6
2018-Feb-14 19:30N 38°37' W 090°11'6 0.3
2018-Feb-14 03:38N 38°32' W 090°15'5 7.0
2018-Feb-14 02:51N 38°37' W 090°11'3 7.0
2018-Feb-14 02:27N 38°39' W 090°11'2 4.9
2018-Feb-14 02:00N 38°42' W 090°11'1 1.3
2018-Feb-14 01:30N 38°42' W 090°11'1 2.0
2018-Feb-14 01:00N 38°43' W 090°10'1 2.5
2018-Feb-14 00:30N 38°44' W 090°09'0 0.6
2018-Feb-14 00:00N 38°44' W 090°09'1 1.5
2018-Feb-13 23:24N 38°45' W 090°09'2 3.6
2018-Feb-13 22:45N 38°47' W 090°07'1 5.8
2018-Feb-13 22:30N 38°49' W 090°07'3 5.5
2018-Feb-13 22:00N 38°51' W 090°07'1 2.7
2018-Feb-13 21:28N 38°52' W 090°09'0 0.1
2018-Feb-13 21:00N 38°52' W 090°09'0 0.2
2018-Feb-13 20:23N 38°52' W 090°09'0 0.0
2018-Feb-13 20:00N 38°52' W 090°09'0 0.2
2018-Feb-13 19:30N 38°52' W 090°09'0 0.0
2018-Feb-13 19:00N 38°52' W 090°09'0 0.1
2018-Feb-13 18:27N 38°52' W 090°09'1 1.9
2018-Feb-13 18:00N 38°53' W 090°10'3 5.7
2018-Feb-13 17:30N 38°54' W 090°13'1 2.9
2018-Feb-13 17:00N 38°55' W 090°15'0 0.0
2018-Feb-13 16:30N 38°55' W 090°15'0 0.0
2018-Feb-13 16:00N 38°55' W 090°15'0 0.0
2018-Feb-13 15:30N 38°55' W 090°15'0 0.0
2018-Feb-13 15:00N 38°55' W 090°15'0 0.0
2018-Feb-13 14:30N 38°55' W 090°15'0 0.0
2018-Feb-13 14:00N 38°55' W 090°15'0 0.0
2018-Feb-13 13:30N 38°55' W 090°15'0 0.0
2018-Feb-13 13:00N 38°55' W 090°15'0 0.0
2018-Feb-13 12:30N 38°55' W 090°15'0 0.0
2018-Feb-13 12:00N 38°55' W 090°15'0 0.0
2018-Feb-13 11:30N 38°55' W 090°15'0 0.0
2018-Feb-13 11:00N 38°55' W 090°15'0 0.0
2018-Feb-13 10:30N 38°55' W 090°15'0 0.0
2018-Feb-13 10:00N 38°55' W 090°15'0 0.0
2018-Feb-13 09:30N 38°55' W 090°15'0 0.0
2018-Feb-13 09:00N 38°55' W 090°15'0 0.0
2018-Feb-13 08:30N 38°55' W 090°15'0 0.2
2018-Feb-13 08:00N 38°55' W 090°15'2 4.1
2018-Feb-13 07:30N 38°55' W 090°17'3 5.7
2018-Feb-13 07:00N 38°56' W 090°21'3 6.2
2018-Feb-13 06:30N 38°58' W 090°24'3 6.0
2018-Feb-13 06:00N 38°58' W 090°28'2 4.9
2018-Feb-13 05:30N 38°57' W 090°31'3 5.1
2018-Feb-13 05:00N 38°59' W 090°33'3 5.3
2018-Feb-13 04:30N 39°01' W 090°34'2 4.2
2018-Feb-13 04:00N 39°03' W 090°35'2 3.6
2018-Feb-13 03:30N 39°05' W 090°36'3 5.1
2018-Feb-13 03:00N 39°08' W 090°36'2 4.4
2018-Feb-13 02:29N 39°10' W 090°37'2 4.6
2018-Feb-13 02:00N 39°12' W 090°36'  
2018-Feb-07 05:50N 38°52' W 090°09'1 1.8
2018-Feb-07 05:30N 38°52' W 090°08'0 0.6
2018-Feb-07 05:00N 38°52' W 090°08'0 0.1
2018-Feb-07 04:30N 38°52' W 090°08'0 0.0
2018-Feb-07 04:00N 38°52' W 090°08'0 0.0
2018-Feb-07 03:30N 38°52' W 090°08'0 0.0
2018-Feb-07 03:00N 38°52' W 090°08'0 0.1
2018-Feb-07 02:30N 38°52' W 090°08'0 0.0
2018-Feb-07 02:00N 38°52' W 090°08'0 0.0
2018-Feb-07 01:30N 38°52' W 090°08'0 0.0
2018-Feb-07 01:00N 38°52' W 090°08'0 0.0
2018-Feb-07 00:30N 38°52' W 090°08'0 0.0
2018-Feb-07 00:00N 38°52' W 090°08'0 0.0
2018-Feb-06 23:29N 38°52' W 090°08'1 1.5
2018-Feb-06 23:00N 38°51' W 090°08'2 4.4
2018-Feb-06 22:30N 38°49' W 090°07'0 0.4
2018-Feb-06 22:00N 38°49' W 090°07'0 0.0
2018-Feb-06 21:29N 38°49' W 090°07'0 0.1
2018-Feb-06 21:00N 38°49' W 090°07'0 0.4
2018-Feb-06 20:30N 38°49' W 090°07'0 0.0
2018-Feb-06 19:59N 38°49' W 090°07'0 0.0
2018-Feb-06 19:30N 38°49' W 090°07'0 0.0
2018-Feb-06 19:00N 38°49' W 090°07'0 0.0
2018-Feb-06 18:25N 38°49' W 090°07'0 0.0
2018-Feb-06 18:00N 38°49' W 090°07'0 0.0
2018-Feb-06 17:27N 38°49' W 090°07'0 0.0
2018-Feb-06 16:59N 38°49' W 090°07'0 0.0
2018-Feb-06 16:30N 38°49' W 090°07'0 0.4
2018-Feb-06 16:00N 38°49' W 090°07'2 3.8
2018-Feb-06 15:30N 38°51' W 090°07'2 2.4
2018-Feb-06 14:52N 38°52' W 090°09'0 0.0
2018-Feb-06 14:24N 38°52' W 090°09'0 0.1
2018-Feb-06 14:00N 38°52' W 090°09'0 0.3
2018-Feb-06 13:00N 38°52' W 090°09'0 0.0
2018-Feb-06 12:30N 38°52' W 090°09'0 0.2
2018-Feb-06 12:00N 38°52' W 090°09'0 0.1
2018-Feb-06 11:00N 38°52' W 090°09'0 0.0
2018-Feb-06 10:30N 38°52' W 090°09'0 0.1
2018-Feb-06 10:00N 38°52' W 090°09'2 4.1
2018-Feb-06 09:30N 38°53' W 090°12'2 2.0
2018-Feb-06 08:30N 38°55' W 090°13'0 0.0
2018-Feb-06 08:00N 38°55' W 090°13'0 0.0
2018-Feb-06 07:30N 38°55' W 090°13'0 0.0
2018-Feb-06 06:30N 38°55' W 090°13'0 0.0
2018-Feb-06 06:00N 38°55' W 090°13'0 0.0
2018-Feb-06 05:30N 38°55' W 090°13'0 0.0
2018-Feb-06 05:00N 38°55' W 090°13'0 0.0
2018-Feb-06 04:30N 38°55' W 090°13'5 3.4
2018-Feb-06 03:00N 38°56' W 090°20'3 6.0
2018-Feb-06 02:30N 38°57' W 090°23'6 5.6
2018-Feb-06 01:30N 38°58' W 090°30'2 4.4
2018-Feb-06 01:00N 38°58' W 090°33'  

Dump ship's entire track history